Location: Chenango Forks
(42.2242°N, 75.8278°W)
Time: 20:17:57
(UTC-04:00)

Daily predictions for brighter satellites

Satellite Brightness Start Highest point End
(mag) Time Altitude Azimuth Time Altitude Azimuth Time Altitude Azimuth
USA 186 3.7 21:17:21 10° SSW 21:19:09 19° W 21:20:53 10° NW
Cosmos 1140 Rocket 3.5 21:16:42 10° SSW 21:21:52 81° ESE 21:27:02 10° NNE
Cosmos 2082 3.9 21:16:22 10° SSW 21:21:59 79° WNW 21:27:39 10° NNE
USA 32 4.1 21:17:12 10° S 21:22:22 66° E 21:27:35 10° N
SAR-Lupe-1 4.1 21:19:36 10° SSE 21:23:09 67° ENE 21:26:44 10° N
Cosmos 1242 Rocket 3.8 21:21:45 10° NNE 21:25:01 28° ENE 21:28:15 10° SE
Cosmos 2297 Rocket 2.5 21:23:00 10° SSW 21:28:38 75° WNW 21:34:20 10° NNE
Resurs 01 Rocket 4.0 21:26:11 10° SSW 21:29:38 22° W 21:33:07 10° NW
Cosmos 1939 Rocket 3.7 21:29:37 10° S 21:33:30 51° W 21:37:28 10° NNW
Cosmos 1867 3.9 21:31:15 10° S 21:36:21 44° ESE 21:41:31 10° NE
Cosmos 2100 Rocket 4.2 21:32:37 10° N 21:38:51 58° E 21:45:06 10° SSE
Cosmos 1459 Rocket 4.3 21:32:44 10° N 21:38:55 54° ENE 21:44:58 10° SSE
Cosmos 2061 Rocket 4.4 21:33:24 10° N 21:39:36 50° ENE 21:45:44 10° SSE
MetOp-B 4.3 21:36:05 10° SSE 21:41:19 59° ENE 21:46:36 10° N
H-2A R/B 4.4 21:42:08 10° ENE 21:43:11 11° ENE 21:44:13 10° NE
Cosmos 1340 Rocket 3.1 21:40:39 10° SSW 21:44:38 71° W 21:48:42 10° N
Cosmos 1300 4.4 21:45:03 10° NNE 21:47:50 19° ENE 21:50:00 13° ESE
ATLAS 5 CENTAUR R/B 1.7 21:44:32 10° SSW 21:49:09 78° ESE 21:54:13 10° NE
Cosmos 2173 Rocket 4.0 21:45:59 10° N 21:52:06 67° E 21:58:06 11° SSE
SPOT 5 3.2 21:49:06 13° SE 21:53:15 54° ENE 21:58:11 10° N
Cosmos 1850 Rocket 4.0 21:48:20 10° SSW 21:53:30 88° ESE 21:58:45 10° NNE
Lacrosse 5 2.9 21:49:31 10° NW 21:54:17 39° NE 21:58:57 10° ESE
Cosmos 2084 3.1 21:51:31 10° SSW 21:55:30 68° SE 21:59:19 10° NE
YAOGAN 6 3.9 21:52:14 10° SSW 21:55:38 39° W 21:59:08 10° NNW
Helios 1B rocket 4.0 21:52:45 10° N 21:56:37 38° WNW 22:00:26 10° SW
Cosmos 2237 Rocket 3.8 21:51:49 10° NW 21:56:39 30° WSW 22:01:28 10° SSW
Cosmos 1726 3.2 21:53:31 10° NNE 21:56:46 29° ENE 21:58:49 17° SE
USA 234 3.3 21:52:06 10° NE 21:58:36 62° SE 22:05:02 10° SW
Cosmos 1603 4.2 21:57:48 10° NNW 22:03:17 47° ENE 22:07:25 17° SE
CZ-3B R/B 4.0 22:00:16 10° SW 22:03:18 68° SE 22:13:37 10° NE
H-2A R/B 2.5 22:00:47 16° SE 22:04:53 51° ENE 22:10:07 10° N
Atlas Centaur 2 3.2 22:05:29 10° SSW 22:06:28 11° S 22:06:40 11° S
ERS-1 Rocket 3.4 22:02:03 10° S 22:07:01 61° WSW 22:12:01 10° NNW
Cosmos 1802 Rocket 3.9 22:04:36 10° N 22:10:47 80° E 22:16:08 14° S
Abrixas rocket 3.8 22:08:45 10° NW 22:11:43 31° NNE 22:14:41 10° ENE
Cosmos 1818 3.8 22:06:45 10° NW 22:12:10 66° WSW 22:16:16 17° SSE
Cosmos 2227 Rocket 4.4 22:07:32 10° WSW 22:12:23 29° NW 22:17:15 10° N
Cosmos 1725 Rocket 4.3 22:07:28 10° N 22:13:33 50° ENE 22:17:52 19° SE
Cosmos 1908 3.8 22:12:57 10° NNW 22:16:47 55° W 22:20:03 13° S
Cosmos 1674 3.2 22:13:34 10° SSW 22:17:17 57° W 22:21:01 10° N
SL-16 R/B 3.0 22:14:54 10° NW 22:20:18 47° WSW 22:25:10 13° S
Cosmos 1943 4.3 22:15:22 10° N 22:20:29 33° ENE 22:24:10 17° ESE
Landsat 7 4.2 22:20:56 22° SE 22:23:48 52° ENE 22:28:25 10° N
ARGOS 3.3 22:20:18 15° S 22:24:53 72° WSW 22:30:19 10° NNW
Cosmos 1408 Rocket 3.5 22:23:35 12° S 22:27:31 82° W 22:31:52 10° N
KORONAS-FOTON 4.1 22:24:13 11° SSW 22:27:47 66° W 22:31:34 10° N
Cosmos 1356 Rocket 4.4 22:28:47 10° SSW 22:32:51 46° WNW 22:37:01 10° N
Tiangong 1 0.8 22:32:51 10° W 22:35:39 78° N 22:36:45 32° ENE
DMSP B5D2-2 4.1 22:31:38 10° NNE 22:36:50 60° ESE 22:40:08 22° S
Terra 2.2 22:36:22 26° SE 22:38:44 51° ENE 22:43:21 10° N
Cosmos 2058 3.8 22:38:51 28° ESE 22:39:56 32° E 22:43:42 10° NNE
Cosmos 1703 4.5 22:40:50 25° ESE 22:41:25 26° E 22:44:46 10° NNE
Cosmos 2016 Rocket 4.2 22:36:30 10° NNW 22:42:44 70° W 22:47:32 17° S
Cosmos 1356 4.2 22:44:13 33° ESE 22:44:30 34° E 22:47:42 10° NNE
Cosmos 1500 Rocket 3.7 22:45:14 31° SSE 22:47:07 57° E 22:51:30 10° NNE
Cosmos 332 Rocket 3.8 22:47:17 10° NNW 22:52:12 80° WSW 22:54:33 31° S
ERBS 3.1 22:50:23 10° NW 22:53:40 45° NE 22:54:40 33° E
Cosmos 2151 3.1 22:54:01 37° SSE 22:55:25 57° E 22:59:40 10° NNE
Cosmos 1814 Rocket 4.0 22:50:14 10° NNW 22:55:37 88° WSW 22:58:11 32° SSE
CARTOSAT-1 3.5 22:55:32 37° SSE 22:57:12 79° ENE 23:01:31 10° N
Meteor 1-27 4.4 22:51:56 10° N 22:57:44 66° ENE 23:00:29 31° SSE
RESURS DK-1 2.6 22:53:46 10° NNW 22:57:54 64° WSW 22:59:21 37° S
SPOT 1/Viking Rocket 4.2 22:56:35 21° SSW 22:59:50 49° W 23:04:50 10° NNW
Cosmos 1486 Rocket 3.9 22:57:03 25° S 23:00:09 72° ESE 23:05:27 10° NNE
Spot 4 4.4 23:00:17 31° ESE 23:02:07 45° ENE 23:06:46 10° N
Cosmos 2233 Rocket 3.9 23:01:59 10° N 23:08:15 82° E 23:11:20 32° SSE
Cosmos 841 Rocket 3.5 23:03:55 10° NNW 23:09:11 76° ENE 23:11:13 38° SSE
Cosmos 1328 Rocket 4.3 23:06:43 10° NNW 23:10:54 46° W 23:12:49 27° SSW
Cosmos 2228 Rocket 3.8 23:07:55 10° NNW 23:12:22 51° W 23:14:28 28° SSW
Cosmos 1763 Rocket 3.4 23:07:32 10° NNW 23:12:40 79° WSW 23:14:35 39° S
SL-14 R/B 4.3 23:10:43 21° SW 23:13:02 43° WNW 23:16:50 10° N
Cosmos 1515 Rocket 3.8 23:10:11 10° NNW 23:14:28 60° W 23:16:02 36° SSW
H-2A R/B 2.0 23:17:20 46° S 23:18:36 79° WSW 23:22:53 10° NNW
Cosmos 1743 Rocket 4.4 23:16:55 21° SW 23:19:27 45° WNW 23:23:38 10° N
Cosmos 1151 Rocket 3.3 23:19:11 10° NNW 23:23:32 63° W 23:24:51 41° SSW
Cosmos 1300 4.3 23:20:16 10° NNW 23:23:34 28° W 23:25:01 22° SW
Cosmos 2263 Rocket 2.0 23:21:44 31° SSW 23:24:29 78° ESE 23:30:05 10° NNE
Cosmos 1626 2.0 23:25:43 66° SSW 23:26:11 84° W 23:29:56 10° N
SL-19 R/B 4.2 23:22:30 10° NNE 23:27:50 80° WNW 23:30:50 28° SSW
Cosmos 1726 4.5 23:29:28 10° NW 23:31:49 16° W 23:33:26 13° WSW
IGS 5A 4.4 23:33:58 33° SW 23:35:04 40° W 23:39:00 10° NNW
Lacrosse 5 2.4 23:32:31 10° WNW 23:37:18 42° SW 23:38:08 39° SSW
USA 234 4.3 23:35:16 10° NE 23:41:27 47° NNW 23:47:38 10° W
H-2A R/B 4.0 23:41:25 13° SW 23:44:35 21° W 23:48:38 10° NW
Cosmos 1503 Rocket 3.9 23:43:58 42° SSW 23:45:47 87° WNW 23:50:59 10° NNE
Cosmos 2285 Rocket 3.9 23:41:59 10° NNW 23:48:21 88° WSW 23:50:38 43° SSE
Abrixas rocket 3.3 23:45:25 10° WNW 23:47:34 37° WNW 23:47:34 37° WNW
Cosmos 1869 3.5 23:46:25 10° N 23:50:18 57° ENE 23:50:18 57° ENE
CZ-4C R/B 3.5 23:53:11 65° SSW 23:53:39 72° W 23:58:01 10° NNW
